Terug naar catalogus

FREGAT DEB

LostUNKNOWN
NORAD 46108·DEBRIS·🇷🇺 Russia

Gelanceerd Jul 18, 2011 vanaf Baikonur Cosmodrome

Loading…

Volgende Passages (komende 24 uur)

TLE

VerouderdSource: Space-Track

Epoch: Oct 29, 2022, 21:26 UTC

1 46108U 11037JT  22302.89327025  .05783922  00000-0  71923+0 0  9993
2 46108  51.6994 181.4114 1689997 106.3312 272.9419 11.80220431 89878

Volg FREGAT DEB in realtime met AllMySat

Download on the App Store